Location: Bosmont
(49.7318°N, 3.8587°E)
Time: 11:53:02
(UTC+00:00)

Cosmos 2219 Rocket - Pass Details

Date: 08 February 2023
Orbit: 826 x 848 km, 71.0° (Epoch: 24 March)

Event Time Altitude Azimuth Distance (km) Brightness Sun altitude
Rises 18:25:02 0° 206° (SSW) 3,354 5.8 -15.5°
Reaches altitude 10° 18:27:27 10° 206° (SSW) 2,426 5.0 -15.9°
Maximum altitude 18:33:02 88° 117° (ESE) 838 2.1 -16.8°
Drops below altitude 10° 18:38:40 10° 29° (NNE) 2,453 4.3 -17.7°
Enters shadow 18:39:06 - 29° (NNE) 2,620 4.5 -17.8°
